ADY064 VGHS-OMAA

Flight info

Callsign ADY064
Flight time 3h 8m
Altitude 30000
Route IKOGU2 IKOGU A462 CEA A791 ASOPO/N0445F320 A791 BPL L639 RASKI N881 KIPOL L444 TOLDA M628 TULBU P558 SODEX N563 NOBTO
Aircraft A320/M-SDE3FGHIRWY/LB1

Departure

Time 2026-04-26 13:56
Airport Hazrat Shahjalal International Airport (VGHS)

Arrival

Time 2026-04-26 17:04
Airport Zayed International Airport (OMAA)
Time Latitude Longitude Altitude Speed Heading
2026-04-26 13:24 23.84633 90.40520 36 ft 0 kts 54°
2026-04-26 13:45 23.84627 90.40511 36 ft 4 kts 53°
2026-04-26 13:46 23.84610 90.40489 34 ft 4 kts 47°
2026-04-26 13:46 23.84591 90.40468 33 ft 4 kts 36°
2026-04-26 13:46 23.84568 90.40455 34 ft 4 kts 360°
2026-04-26 13:46 23.84554 90.40459 34 ft 1 kts 326°
2026-04-26 13:47 23.84553 90.40460 34 ft 0 kts 326°
2026-04-26 13:49 23.84554 90.40459 34 ft 2 kts 326°
2026-04-26 13:50 23.84582 90.40438 35 ft 8 kts 326°
2026-04-26 13:50 23.84644 90.40393 36 ft 13 kts 326°
2026-04-26 13:50 23.84730 90.40327 34 ft 14 kts 316°
2026-04-26 13:50 23.84711 90.40294 36 ft 4 kts 199°
2026-04-26 13:51 23.84677 90.40281 36 ft 8 kts 204°
2026-04-26 13:51 23.84652 90.40205 36 ft 15 kts 295°
2026-04-26 13:51 23.84750 90.40110 36 ft 22 kts 321°
2026-04-26 13:51 23.84897 90.39999 36 ft 29 kts 328°
2026-04-26 13:52 23.85077 90.39857 35 ft 35 kts 323°
2026-04-26 13:52 23.85270 90.39700 36 ft 35 kts 323°
2026-04-26 13:52 23.85469 90.39552 36 ft 35 kts 325°
2026-04-26 13:52 23.85658 90.39396 36 ft 32 kts 325°
2026-04-26 13:53 23.85762 90.39312 36 ft 12 kts 312°
2026-04-26 13:53 23.85749 90.39238 35 ft 10 kts 234°
2026-04-26 13:53 23.85714 90.39185 36 ft 8 kts 232°
2026-04-26 13:53 23.85682 90.39140 36 ft 10 kts 232°
2026-04-26 13:54 23.85622 90.39053 35 ft 18 kts 234°
2026-04-26 13:54 23.85545 90.38938 35 ft 19 kts 233°
2026-04-26 13:54 23.85487 90.38871 35 ft 7 kts 191°
2026-04-26 13:55 23.85445 90.38898 35 ft 9 kts 145°
2026-04-26 13:55 23.85356 90.38965 35 ft 45 kts 146°
2026-04-26 13:55 23.83878 90.40147 43 ft 169 kts 143°
2026-04-26 13:56 23.82966 90.40877 663 ft 163 kts 143°
2026-04-26 13:56 23.82061 90.41597 1375 ft 159 kts 143°
2026-04-26 13:56 23.81155 90.42314 1847 ft 167 kts 144°
2026-04-26 13:56 23.80152 90.43103 2049 ft 189 kts 145°
2026-04-26 13:57 23.79006 90.43951 2212 ft 209 kts 156°
2026-04-26 13:57 23.77524 90.44089 2449 ft 228 kts 198°
2026-04-26 13:57 23.76245 90.43127 2994 ft 237 kts 224°
2026-04-26 13:57 23.75152 90.41682 3414 ft 254 kts 232°
2026-04-26 13:58 23.74137 90.40075 4119 ft 258 kts 234°
2026-04-26 13:58 23.73157 90.38429 4877 ft 260 kts 236°
2026-04-26 13:58 23.72219 90.36728 5613 ft 262 kts 239°
2026-04-26 13:58 23.71312 90.35018 6330 ft 264 kts 240°
2026-04-26 13:59 23.70381 90.33250 7009 ft 267 kts 240°
2026-04-26 13:59 23.69462 90.31508 7683 ft 269 kts 241°
2026-04-26 13:59 23.68518 90.29725 8351 ft 273 kts 242°
2026-04-26 14:00 23.65614 90.24260 10030 ft 292 kts 243°
2026-04-26 14:00 23.64559 90.22270 10149 ft 314 kts 243°
2026-04-26 14:00 23.63818 90.20876 10309 ft 324 kts 243°
2026-04-26 14:01 23.62281 90.18006 10987 ft 331 kts 243°
2026-04-26 14:01 23.61108 90.15828 11563 ft 333 kts 243°
2026-04-26 14:01 23.59932 90.13646 12147 ft 336 kts 243°
2026-04-26 14:01 23.58743 90.11441 12725 ft 338 kts 243°
2026-04-26 14:02 23.57554 90.09226 13299 ft 340 kts 244°
2026-04-26 14:02 23.56377 90.07033 13823 ft 343 kts 244°
2026-04-26 14:02 23.55180 90.04810 14321 ft 345 kts 244°
2026-04-26 14:02 23.53959 90.02541 14815 ft 348 kts 244°
2026-04-26 14:03 23.52734 90.00260 15312 ft 350 kts 244°
2026-04-26 14:03 23.51504 89.97964 15778 ft 354 kts 244°
2026-04-26 14:03 23.50259 89.95639 16227 ft 357 kts 244°
2026-04-26 14:03 23.48998 89.93290 16697 ft 361 kts 244°
2026-04-26 14:04 23.47726 89.90926 17145 ft 364 kts 244°
2026-04-26 14:04 23.46438 89.88535 17602 ft 366 kts 244°
2026-04-26 14:04 23.45143 89.86131 18056 ft 369 kts 244°
2026-04-26 14:04 23.43837 89.83712 18448 ft 372 kts 244°
2026-04-26 14:05 23.42517 89.81271 18831 ft 375 kts 243°
2026-04-26 14:05 23.41185 89.78810 19159 ft 380 kts 243°
2026-04-26 14:05 23.39844 89.76329 19524 ft 383 kts 243°
2026-04-26 14:05 23.38487 89.73820 19909 ft 385 kts 243°
2026-04-26 14:06 23.37141 89.71330 20288 ft 388 kts 243°
2026-04-26 14:06 23.35770 89.68793 20677 ft 390 kts 243°
2026-04-26 14:06 23.34388 89.66238 21046 ft 392 kts 243°
2026-04-26 14:06 23.32999 89.63674 21426 ft 395 kts 243°
2026-04-26 14:07 23.31600 89.61098 21793 ft 397 kts 243°
2026-04-26 14:07 23.30187 89.58499 22155 ft 399 kts 243°
2026-04-26 14:07 23.28771 89.55890 22509 ft 401 kts 243°
2026-04-26 14:07 23.27354 89.53272 22854 ft 404 kts 244°
2026-04-26 14:08 23.25923 89.50628 23210 ft 406 kts 244°
2026-04-26 14:08 23.24486 89.47980 23520 ft 408 kts 244°
2026-04-26 14:08 23.23040 89.45317 23823 ft 409 kts 244°
2026-04-26 14:08 23.21589 89.42651 24138 ft 411 kts 243°
2026-04-26 14:09 23.20133 89.39978 24456 ft 411 kts 243°
2026-04-26 14:09 23.18675 89.37299 24756 ft 412 kts 243°
2026-04-26 14:09 23.17212 89.34610 25072 ft 413 kts 244°
2026-04-26 14:09 23.15752 89.31928 25376 ft 413 kts 243°
2026-04-26 14:10 23.14288 89.29240 25680 ft 414 kts 243°
2026-04-26 14:10 23.12820 89.26544 25971 ft 415 kts 243°
2026-04-26 14:10 23.11361 89.23870 26264 ft 416 kts 243°
2026-04-26 14:10 23.09894 89.21184 26650 ft 414 kts 244°
2026-04-26 14:11 23.06920 89.15748 27026 ft 421 kts 244°
2026-04-26 14:11 23.05414 89.13005 27286 ft 423 kts 244°
2026-04-26 14:11 23.03909 89.10261 27557 ft 424 kts 244°
2026-04-26 14:12 23.02401 89.07507 27826 ft 425 kts 244°
2026-04-26 14:12 23.00887 89.04744 28100 ft 426 kts 244°
2026-04-26 14:12 22.99370 89.01975 28363 ft 427 kts 244°
2026-04-26 14:12 22.97865 88.99230 28609 ft 428 kts 244°
2026-04-26 14:13 22.94810 88.93659 29112 ft 430 kts 244°
2026-04-26 14:13 22.93281 88.90869 29336 ft 431 kts 244°
2026-04-26 14:13 22.91744 88.88072 29581 ft 432 kts 243°
2026-04-26 14:14 22.90194 88.85274 29805 ft 432 kts 243°
2026-04-26 14:14 22.88645 88.82484 30121 ft 429 kts 243°
2026-04-26 14:14 22.87114 88.79732 30521 ft 425 kts 243°
2026-04-26 14:14 22.85594 88.77001 30851 ft 422 kts 243°
2026-04-26 14:15 22.84084 88.74285 31156 ft 420 kts 243°
2026-04-26 14:15 22.82579 88.71578 31433 ft 419 kts 243°
2026-04-26 14:15 22.81080 88.68882 31692 ft 418 kts 243°
2026-04-26 14:16 22.78117 88.63549 31787 ft 406 kts 243°
2026-04-26 14:16 22.75188 88.58298 31781 ft 410 kts 243°
2026-04-26 14:17 22.72236 88.53006 31778 ft 411 kts 243°
2026-04-26 14:17 22.69369 88.47689 31792 ft 408 kts 249°
2026-04-26 14:18 22.67978 88.41914 31771 ft 390 kts 268°
2026-04-26 14:18 22.68226 88.36097 31771 ft 386 kts 274°
2026-04-26 14:19 22.68618 88.30291 31771 ft 386 kts 274°
2026-04-26 14:19 22.69006 88.24493 31778 ft 386 kts 274°
2026-04-26 14:20 22.69387 88.18696 31767 ft 386 kts 274°
2026-04-26 14:20 22.69766 88.12899 31761 ft 386 kts 274°
2026-04-26 14:21 22.70145 88.07104 31766 ft 385 kts 274°
2026-04-26 14:21 22.70517 88.01357 31764 ft 384 kts 274°
2026-04-26 14:22 22.70889 87.95591 31766 ft 383 kts 274°
2026-04-26 14:22 22.71255 87.89847 31774 ft 382 kts 273°
2026-04-26 14:23 22.71610 87.84092 31755 ft 382 kts 273°
2026-04-26 14:23 22.71971 87.78351 31756 ft 382 kts 274°
2026-04-26 14:24 22.72335 87.72613 31761 ft 382 kts 274°
2026-04-26 14:24 22.72697 87.66875 31736 ft 381 kts 273°
2026-04-26 14:25 22.73055 87.61139 31739 ft 381 kts 273°
2026-04-26 14:25 22.73408 87.55412 31746 ft 381 kts 273°
2026-04-26 14:26 22.73760 87.49681 31743 ft 381 kts 273°
2026-04-26 14:26 22.74106 87.43994 31742 ft 381 kts 273°
2026-04-26 14:27 22.74456 87.38271 31742 ft 381 kts 273°
2026-04-26 14:27 22.74802 87.32544 31750 ft 381 kts 273°
2026-04-26 14:28 22.75139 87.26824 31758 ft 380 kts 274°
2026-04-26 14:28 22.75483 87.21105 31753 ft 380 kts 274°
2026-04-26 14:29 22.75820 87.15392 31776 ft 380 kts 273°
2026-04-26 14:29 22.76161 87.09686 31776 ft 380 kts 273°
2026-04-26 14:30 22.76501 87.03974 31771 ft 380 kts 273°
2026-04-26 14:30 22.76833 86.98265 31765 ft 379 kts 273°
2026-04-26 14:31 22.77160 86.92596 31769 ft 380 kts 273°
2026-04-26 14:31 22.77484 86.86878 31765 ft 380 kts 273°
2026-04-26 14:32 22.77808 86.81160 31764 ft 380 kts 273°
2026-04-26 14:32 22.78135 86.75428 31779 ft 381 kts 273°
2026-04-26 14:33 22.78459 86.69700 31781 ft 381 kts 273°
2026-04-26 14:33 22.78779 86.63968 31790 ft 381 kts 273°
2026-04-26 14:34 22.79095 86.58278 31795 ft 381 kts 273°
2026-04-26 14:34 22.79417 86.52538 31791 ft 382 kts 273°
2026-04-26 14:35 22.79687 86.47717 31791 ft 383 kts 273°
2026-04-26 14:35 22.80000 86.41991 31791 ft 383 kts 273°
2026-04-26 14:36 22.80310 86.36226 31795 ft 384 kts 273°
2026-04-26 14:36 22.80627 86.30450 31807 ft 384 kts 273°
2026-04-26 14:37 22.80932 86.24658 31809 ft 384 kts 273°
2026-04-26 14:37 22.81233 86.18873 31811 ft 384 kts 273°
2026-04-26 14:38 22.81606 86.13092 31815 ft 385 kts 274°
2026-04-26 14:38 22.82113 86.07307 31814 ft 386 kts 275°
2026-04-26 14:39 22.82628 86.01544 31816 ft 386 kts 275°
2026-04-26 14:39 22.83119 85.95746 31816 ft 386 kts 274°
2026-04-26 14:40 22.83589 85.89937 31817 ft 387 kts 274°
2026-04-26 14:40 22.84059 85.84125 31831 ft 387 kts 274°
2026-04-26 14:41 22.84526 85.78314 31835 ft 387 kts 274°
2026-04-26 14:41 22.84996 85.72501 31845 ft 387 kts 274°
2026-04-26 14:42 22.85458 85.66687 31844 ft 387 kts 274°
2026-04-26 14:42 22.85922 85.60878 31841 ft 387 kts 274°
2026-04-26 14:43 22.86388 85.55055 31849 ft 387 kts 274°
2026-04-26 14:43 22.86845 85.49243 31851 ft 387 kts 274°
2026-04-26 14:44 22.87303 85.43431 31851 ft 387 kts 274°
2026-04-26 14:44 22.87756 85.37614 31841 ft 387 kts 274°
2026-04-26 14:45 22.88210 85.31794 31842 ft 387 kts 274°
2026-04-26 14:45 22.88666 85.25977 31835 ft 387 kts 274°
2026-04-26 14:46 22.89119 85.20153 31838 ft 387 kts 274°
2026-04-26 14:46 22.89564 85.14365 31837 ft 388 kts 274°
2026-04-26 14:47 22.90012 85.08539 31826 ft 388 kts 274°
2026-04-26 14:47 22.90459 85.02715 31869 ft 388 kts 274°
2026-04-26 14:48 22.90912 84.96892 31854 ft 387 kts 274°
2026-04-26 14:48 22.91358 84.91073 31850 ft 387 kts 274°
2026-04-26 14:49 22.91801 84.85255 31844 ft 387 kts 274°
2026-04-26 14:49 22.92239 84.79437 31837 ft 387 kts 274°
2026-04-26 14:50 22.92677 84.73628 31838 ft 387 kts 274°
2026-04-26 14:50 22.93119 84.67818 31835 ft 387 kts 274°
2026-04-26 14:51 22.93983 84.56221 31817 ft 388 kts 274°
2026-04-26 14:51 22.95701 84.32792 31827 ft 390 kts 274°
2026-04-26 14:52 22.97391 84.09206 31811 ft 393 kts 274°
2026-04-26 14:52 22.98610 83.85623 31832 ft 394 kts 273°
2026-04-26 14:53 22.99872 83.61639 31797 ft 402 kts 273°
2026-04-26 14:53 23.01118 83.37225 31796 ft 406 kts 273°
2026-04-26 14:54 23.02340 83.12746 31767 ft 406 kts 273°
2026-04-26 14:54 23.03509 82.88232 31764 ft 406 kts 273°
2026-04-26 14:55 23.04641 82.63670 31736 ft 408 kts 273°
2026-04-26 14:55 23.05755 82.39060 31741 ft 409 kts 273°
2026-04-26 14:56 23.06821 82.14318 31740 ft 411 kts 273°
2026-04-26 14:56 23.08382 81.89553 31758 ft 411 kts 274°
2026-04-26 14:57 23.09868 81.64764 31774 ft 411 kts 274°
2026-04-26 14:57 23.11322 81.39967 31794 ft 412 kts 273°
2026-04-26 14:58 23.12725 81.15245 31787 ft 413 kts 273°
2026-04-26 14:58 23.14097 80.90309 31808 ft 414 kts 273°
2026-04-26 14:59 23.15457 80.65351 31795 ft 414 kts 273°
2026-04-26 14:59 23.16809 80.40318 31788 ft 415 kts 273°
2026-04-26 15:00 23.18116 80.15223 31805 ft 416 kts 273°
2026-04-26 15:00 23.19290 79.90104 31791 ft 416 kts 272°
2026-04-26 15:01 23.20367 79.64976 31786 ft 416 kts 272°
2026-04-26 15:01 23.21008 79.39790 31802 ft 417 kts 270°
2026-04-26 15:02 23.21445 79.14558 31792 ft 418 kts 270°
2026-04-26 15:02 23.21832 78.89271 31792 ft 419 kts 270°
2026-04-26 15:03 23.22479 78.64044 31812 ft 421 kts 273°
2026-04-26 15:03 23.23759 78.38631 31799 ft 421 kts 272°
2026-04-26 15:04 23.24916 78.13164 31816 ft 421 kts 272°
2026-04-26 15:04 23.26051 77.87727 31804 ft 422 kts 272°
2026-04-26 15:05 23.27118 77.62971 31803 ft 425 kts 273°
2026-04-26 15:05 23.28189 77.37116 31838 ft 430 kts 272°
2026-04-26 15:06 23.26728 77.11167 31836 ft 430 kts 265°
2026-04-26 15:06 23.24847 76.85237 31822 ft 430 kts 265°
2026-04-26 15:07 23.21969 76.46345 31832 ft 433 kts 265°
2026-04-26 15:07 23.19976 76.20288 31835 ft 432 kts 265°
2026-04-26 15:08 23.18161 75.94230 31827 ft 433 kts 269°
2026-04-26 15:08 23.18012 75.68024 31823 ft 434 kts 268°
2026-04-26 15:09 23.17636 75.41721 31843 ft 436 kts 268°
2026-04-26 15:09 23.17224 75.15364 31838 ft 436 kts 268°
2026-04-26 15:10 23.16847 74.93449 31828 ft 436 kts 268°
2026-04-26 15:10 23.16250 74.62617 31813 ft 436 kts 268°
2026-04-26 15:11 23.15708 74.36256 31798 ft 436 kts 268°
2026-04-26 15:11 23.14567 74.10855 31776 ft 438 kts 266°
2026-04-26 15:12 23.13307 73.84403 31758 ft 439 kts 267°
2026-04-26 15:12 23.11996 73.57897 31748 ft 439 kts 267°
2026-04-26 15:13 23.10608 73.31360 31743 ft 440 kts 267°
2026-04-26 15:13 23.09210 73.04848 31733 ft 439 kts 267°
2026-04-26 15:14 23.07754 72.78545 31722 ft 439 kts 267°
2026-04-26 15:14 23.05318 72.52157 31718 ft 439 kts 262°
2026-04-26 15:15 23.01671 72.25867 31727 ft 440 kts 262°
2026-04-26 15:15 22.97920 71.99519 31729 ft 442 kts 262°
2026-04-26 15:16 22.94110 71.73124 31739 ft 443 kts 262°
2026-04-26 15:16 22.90255 71.46691 31756 ft 444 kts 261°
2026-04-26 15:17 22.87050 71.24899 31769 ft 444 kts 261°
2026-04-26 15:17 22.82433 70.93986 31792 ft 444 kts 261°
2026-04-26 15:18 22.80953 70.80911 31767 ft 443 kts 275°
2026-04-26 15:18 22.81863 70.67608 31780 ft 443 kts 275°
2026-04-26 15:18 22.83511 70.40860 31781 ft 445 kts 274°
2026-04-26 15:19 22.85138 70.14052 31793 ft 446 kts 274°
2026-04-26 15:19 22.86730 69.87230 31797 ft 445 kts 275°
2026-04-26 15:20 22.88296 69.60810 31820 ft 443 kts 275°
2026-04-26 15:20 22.90027 69.34181 31820 ft 442 kts 275°
2026-04-26 15:21 22.91670 69.07566 31822 ft 442 kts 275°
2026-04-26 15:21 22.93252 68.81124 31831 ft 441 kts 275°
2026-04-26 15:22 22.94805 68.54601 31828 ft 440 kts 275°
2026-04-26 15:22 22.95915 68.32426 31827 ft 440 kts 271°
2026-04-26 15:23 22.95796 68.05899 31830 ft 439 kts 271°
2026-04-26 15:23 22.95795 67.79427 31827 ft 438 kts 271°
2026-04-26 15:24 22.95840 67.52968 31819 ft 438 kts 271°
2026-04-26 15:24 22.95845 67.26725 31830 ft 438 kts 271°
2026-04-26 15:25 22.95795 67.00324 31850 ft 436 kts 270°
2026-04-26 15:25 22.95922 66.74098 31848 ft 432 kts 271°
2026-04-26 15:26 22.96035 66.48093 31829 ft 431 kts 271°
2026-04-26 15:26 22.96111 66.22036 31821 ft 431 kts 271°
2026-04-26 15:27 22.96143 65.95982 31825 ft 432 kts 271°
2026-04-26 15:27 22.96112 65.69883 31824 ft 432 kts 271°
2026-04-26 15:28 22.96074 65.43957 31832 ft 432 kts 271°
2026-04-26 15:28 22.95971 65.17862 31832 ft 432 kts 271°
2026-04-26 15:29 22.95843 64.91790 31833 ft 431 kts 271°
2026-04-26 15:30 22.98378 64.58996 31827 ft 429 kts 277°
2026-04-26 15:30 22.99042 64.52568 31829 ft 429 kts 278°
2026-04-26 15:31 23.00056 64.42920 31831 ft 428 kts 278°
2026-04-26 15:32 23.00952 64.34366 31828 ft 428 kts 278°
2026-04-26 15:32 23.01726 64.26896 31832 ft 428 kts 277°
2026-04-26 15:33 23.02397 64.20476 31830 ft 428 kts 278°
2026-04-26 15:33 23.03058 64.14053 31832 ft 428 kts 277°
2026-04-26 15:34 23.03708 64.07641 31834 ft 428 kts 277°
2026-04-26 15:34 23.04359 64.01218 31829 ft 427 kts 278°
2026-04-26 15:35 23.05016 63.94808 31833 ft 427 kts 277°
2026-04-26 15:35 23.05668 63.88397 31833 ft 427 kts 278°
2026-04-26 15:36 23.05908 63.81949 31832 ft 428 kts 272°
2026-04-26 15:36 23.05979 63.75481 31831 ft 428 kts 272°
2026-04-26 15:37 23.06043 63.69008 31830 ft 428 kts 272°
2026-04-26 15:37 23.06114 63.62582 31831 ft 428 kts 272°
2026-04-26 15:38 23.06183 63.56126 31834 ft 428 kts 272°
2026-04-26 15:38 23.06250 63.49669 31832 ft 427 kts 272°
2026-04-26 15:39 23.06309 63.43214 31829 ft 427 kts 272°
2026-04-26 15:39 23.06350 63.37851 31836 ft 427 kts 272°
2026-04-26 15:40 23.06422 63.30315 31840 ft 426 kts 272°
2026-04-26 15:40 23.06485 63.23879 31838 ft 426 kts 272°
2026-04-26 15:41 23.06539 63.17445 31834 ft 426 kts 272°
2026-04-26 15:41 23.06587 63.11053 31834 ft 426 kts 271°
2026-04-26 15:42 23.06624 63.04627 31835 ft 425 kts 271°
2026-04-26 15:42 23.06662 62.98209 31835 ft 425 kts 271°
2026-04-26 15:43 23.06709 62.91797 31833 ft 424 kts 271°
2026-04-26 15:44 23.06769 62.82171 31829 ft 424 kts 271°
2026-04-26 15:44 23.06820 62.72606 31832 ft 424 kts 271°
2026-04-26 15:45 23.06863 62.63001 31833 ft 424 kts 271°
2026-04-26 15:46 23.06900 62.53402 31834 ft 424 kts 271°
2026-04-26 15:46 23.06916 62.48093 31831 ft 423 kts 271°
2026-04-26 15:47 23.06955 62.37424 31827 ft 423 kts 271°
2026-04-26 15:48 23.06976 62.31080 31831 ft 422 kts 271°
2026-04-26 15:48 23.06987 62.24699 31825 ft 422 kts 271°
2026-04-26 15:49 23.06994 62.18315 31836 ft 422 kts 271°
2026-04-26 15:49 23.07004 62.11950 31835 ft 422 kts 271°
2026-04-26 15:50 23.07014 62.05586 31835 ft 421 kts 271°
2026-04-26 15:50 23.07022 61.99224 31835 ft 421 kts 271°
2026-04-26 15:51 23.07017 61.92859 31830 ft 421 kts 271°
2026-04-26 15:51 23.07009 61.86541 31827 ft 421 kts 271°
2026-04-26 15:52 23.07009 61.80191 31828 ft 421 kts 271°
2026-04-26 15:52 23.07007 61.73836 31828 ft 421 kts 271°
2026-04-26 15:53 23.06998 61.67476 31827 ft 420 kts 271°
2026-04-26 15:53 23.06980 61.61121 31831 ft 420 kts 271°
2026-04-26 15:54 23.06964 61.54810 31831 ft 420 kts 271°
2026-04-26 15:54 23.06915 61.48460 31829 ft 421 kts 267°
2026-04-26 15:55 23.06136 61.42150 31826 ft 422 kts 263°
2026-04-26 15:55 23.05289 61.35837 31830 ft 422 kts 263°
2026-04-26 15:56 23.04449 61.29537 31830 ft 422 kts 264°
2026-04-26 15:56 23.03619 61.23226 31831 ft 422 kts 264°
2026-04-26 15:57 23.02791 61.16921 31832 ft 422 kts 264°
2026-04-26 15:57 23.01978 61.10761 31833 ft 422 kts 264°
2026-04-26 15:58 23.01131 61.04459 31831 ft 422 kts 264°
2026-04-26 15:58 23.00289 60.98197 31832 ft 422 kts 264°
2026-04-26 15:59 22.99442 60.91895 31828 ft 422 kts 264°
2026-04-26 15:59 22.98596 60.85593 31838 ft 421 kts 264°
2026-04-26 16:00 22.97747 60.79299 31838 ft 421 kts 264°
2026-04-26 16:00 22.96887 60.73007 31839 ft 421 kts 264°
2026-04-26 16:01 22.96033 60.66726 31847 ft 420 kts 264°
2026-04-26 16:01 22.95182 60.60462 31847 ft 419 kts 264°
2026-04-26 16:02 22.94332 60.54243 31851 ft 419 kts 264°
2026-04-26 16:02 22.93474 60.47987 31843 ft 419 kts 264°
2026-04-26 16:03 22.92623 60.41744 31844 ft 418 kts 264°
2026-04-26 16:03 22.91774 60.35504 31847 ft 418 kts 264°
2026-04-26 16:04 22.90919 60.29279 31853 ft 417 kts 264°
2026-04-26 16:04 22.90053 60.23052 31841 ft 417 kts 264°
2026-04-26 16:05 22.89181 60.16837 31850 ft 416 kts 264°
2026-04-26 16:05 22.88307 60.10668 31849 ft 416 kts 264°
2026-04-26 16:06 22.87432 60.04468 31844 ft 416 kts 264°
2026-04-26 16:06 22.86555 59.98278 31842 ft 416 kts 264°
2026-04-26 16:07 22.85674 59.92074 31840 ft 416 kts 264°
2026-04-26 16:07 22.84795 59.85879 31836 ft 415 kts 264°
2026-04-26 16:08 22.83927 59.79680 31836 ft 415 kts 264°
2026-04-26 16:08 22.83081 59.73531 31836 ft 415 kts 264°
2026-04-26 16:09 22.82220 59.67337 31834 ft 415 kts 264°
2026-04-26 16:09 22.81358 59.61144 31834 ft 415 kts 264°
2026-04-26 16:10 22.80488 59.54955 31847 ft 415 kts 264°
2026-04-26 16:10 22.79761 59.49811 31841 ft 415 kts 264°
2026-04-26 16:11 22.78886 59.43625 31862 ft 415 kts 264°
2026-04-26 16:11 22.78006 59.37446 31852 ft 415 kts 264°
2026-04-26 16:12 22.77126 59.31267 31857 ft 415 kts 264°
2026-04-26 16:12 22.75800 59.21997 31869 ft 415 kts 264°
2026-04-26 16:13 22.74913 59.15822 31875 ft 415 kts 264°
2026-04-26 16:13 22.74024 59.09639 31887 ft 415 kts 264°
2026-04-26 16:14 22.73140 59.03502 31887 ft 415 kts 264°
2026-04-26 16:15 22.71799 58.94240 31889 ft 415 kts 264°
2026-04-26 16:15 22.70901 58.88070 31884 ft 415 kts 264°
2026-04-26 16:16 22.69547 58.78817 31879 ft 414 kts 264°
2026-04-26 16:16 22.68640 58.72638 31879 ft 414 kts 264°
2026-04-26 16:17 22.67740 58.66472 31870 ft 414 kts 264°
2026-04-26 16:17 22.67295 58.60330 31871 ft 409 kts 277°
2026-04-26 16:18 22.69332 58.51417 31867 ft 406 kts 288°
2026-04-26 16:19 22.71634 58.42571 31881 ft 406 kts 287°
2026-04-26 16:20 22.73939 58.33741 31884 ft 406 kts 287°
2026-04-26 16:20 22.76246 58.24910 31896 ft 406 kts 287°
2026-04-26 16:21 22.77776 58.19029 31902 ft 405 kts 287°
2026-04-26 16:21 22.79303 58.13162 31906 ft 404 kts 287°
2026-04-26 16:22 22.80817 58.07305 31903 ft 403 kts 287°
2026-04-26 16:22 22.82327 58.01489 31912 ft 403 kts 287°
2026-04-26 16:23 22.83840 57.95633 31910 ft 403 kts 287°
2026-04-26 16:23 22.85343 57.89776 31900 ft 402 kts 287°
2026-04-26 16:24 22.86848 57.83928 31901 ft 402 kts 287°
2026-04-26 16:24 22.88354 57.78087 31918 ft 402 kts 287°
2026-04-26 16:25 22.89858 57.72232 31915 ft 402 kts 287°
2026-04-26 16:25 22.91308 57.66408 31930 ft 402 kts 286°
2026-04-26 16:26 22.92751 57.60547 31933 ft 402 kts 286°
2026-04-26 16:26 22.94160 57.54861 31958 ft 402 kts 286°
2026-04-26 16:27 22.95610 57.49012 31950 ft 401 kts 287°
2026-04-26 16:27 22.97062 57.43165 31949 ft 401 kts 287°
2026-04-26 16:28 22.97962 57.37203 31939 ft 403 kts 277°
2026-04-26 16:28 22.98432 57.31152 31946 ft 402 kts 277°
2026-04-26 16:29 22.98899 57.25102 31961 ft 402 kts 277°
2026-04-26 16:29 22.99362 57.19057 31958 ft 402 kts 277°
2026-04-26 16:30 22.99815 57.13012 31947 ft 402 kts 277°
2026-04-26 16:30 23.00265 57.07016 31954 ft 401 kts 277°
2026-04-26 16:31 23.00726 57.00979 31946 ft 401 kts 278°
2026-04-26 16:31 23.02287 56.95240 31968 ft 396 kts 297°
2026-04-26 16:32 23.04401 56.90835 31951 ft 396 kts 297°
2026-04-26 16:32 23.07350 56.84641 31945 ft 395 kts 297°
2026-04-26 16:33 23.09861 56.79373 31937 ft 395 kts 297°
2026-04-26 16:33 23.12385 56.74073 31940 ft 395 kts 297°
2026-04-26 16:34 23.14898 56.68773 31922 ft 395 kts 297°
2026-04-26 16:34 23.17419 56.63469 31932 ft 395 kts 297°
2026-04-26 16:35 23.19930 56.58160 31937 ft 395 kts 297°
2026-04-26 16:35 23.22437 56.52858 31927 ft 394 kts 297°
2026-04-26 16:36 23.24945 56.47569 31929 ft 393 kts 297°
2026-04-26 16:36 23.27447 56.42281 31931 ft 393 kts 297°
2026-04-26 16:37 23.28691 56.39640 31804 ft 390 kts 297°
2026-04-26 16:37 23.29898 56.37074 31564 ft 383 kts 297°
2026-04-26 16:37 23.31107 56.34506 31343 ft 380 kts 297°
2026-04-26 16:37 23.32312 56.31951 31101 ft 379 kts 297°
2026-04-26 16:38 23.33517 56.29398 30858 ft 379 kts 297°
2026-04-26 16:38 23.34719 56.26847 30622 ft 379 kts 297°
2026-04-26 16:38 23.35920 56.24293 30389 ft 379 kts 296°
2026-04-26 16:38 23.37118 56.21744 30163 ft 378 kts 296°
2026-04-26 16:39 23.38314 56.19194 29947 ft 377 kts 296°
2026-04-26 16:39 23.39506 56.16654 29675 ft 376 kts 296°
2026-04-26 16:39 23.40698 56.14124 29395 ft 375 kts 296°
2026-04-26 16:39 23.41886 56.11603 29149 ft 371 kts 296°
2026-04-26 16:40 23.43051 56.09125 28769 ft 365 kts 296°
2026-04-26 16:40 23.44199 56.06677 28372 ft 360 kts 295°
2026-04-26 16:40 23.45327 56.04265 27990 ft 355 kts 295°
2026-04-26 16:40 23.46443 56.01881 27595 ft 351 kts 295°
2026-04-26 16:41 23.47550 55.99525 27199 ft 348 kts 295°
2026-04-26 16:41 23.48650 55.97188 26802 ft 344 kts 295°
2026-04-26 16:41 23.49733 55.94874 26397 ft 341 kts 295°
2026-04-26 16:41 23.50806 55.92576 26005 ft 339 kts 294°
2026-04-26 16:42 23.51866 55.90298 25603 ft 337 kts 294°
2026-04-26 16:42 23.52912 55.88052 25190 ft 335 kts 294°
2026-04-26 16:42 23.53968 55.85794 24780 ft 334 kts 295°
2026-04-26 16:42 23.55232 55.83657 24319 ft 338 kts 306°
2026-04-26 16:43 23.56848 55.81795 23854 ft 341 kts 311°
2026-04-26 16:43 23.58543 55.79979 23365 ft 342 kts 311°
2026-04-26 16:43 23.60244 55.78151 22860 ft 342 kts 311°
2026-04-26 16:43 23.61936 55.76330 22398 ft 341 kts 311°
2026-04-26 16:44 23.63618 55.74519 21949 ft 339 kts 311°
2026-04-26 16:44 23.65293 55.72710 21503 ft 338 kts 311°
2026-04-26 16:44 23.66960 55.70907 21063 ft 337 kts 311°
2026-04-26 16:44 23.68626 55.69106 20627 ft 336 kts 312°
2026-04-26 16:45 23.70287 55.67310 20185 ft 336 kts 312°
2026-04-26 16:45 23.71926 55.65540 19764 ft 336 kts 312°
2026-04-26 16:45 23.73588 55.63750 19337 ft 336 kts 313°
2026-04-26 16:45 23.75249 55.61959 18897 ft 336 kts 313°
2026-04-26 16:46 23.76909 55.60167 18487 ft 336 kts 313°
2026-04-26 16:46 23.78570 55.58371 18037 ft 337 kts 313°
2026-04-26 16:46 23.80232 55.56572 17588 ft 336 kts 313°
2026-04-26 16:46 23.81885 55.54782 17171 ft 334 kts 312°
2026-04-26 16:47 23.83322 55.52813 16751 ft 330 kts 299°
2026-04-26 16:47 23.84307 55.50658 16373 ft 327 kts 292°
2026-04-26 16:47 23.85212 55.48448 15977 ft 326 kts 292°
2026-04-26 16:47 23.86142 55.46186 15578 ft 326 kts 292°
2026-04-26 16:48 23.87073 55.43928 15175 ft 325 kts 293°
2026-04-26 16:48 23.88003 55.41676 14793 ft 325 kts 293°
2026-04-26 16:48 23.88929 55.39431 14468 ft 322 kts 293°
2026-04-26 16:48 23.89847 55.37204 14117 ft 321 kts 293°
2026-04-26 16:49 23.90761 55.34983 13725 ft 320 kts 293°
2026-04-26 16:49 23.91677 55.32764 13303 ft 320 kts 293°
2026-04-26 16:49 23.92593 55.30561 12961 ft 316 kts 294°
2026-04-26 16:49 23.93549 55.28434 12808 ft 307 kts 296°
2026-04-26 16:50 23.94527 55.26372 12494 ft 304 kts 296°
2026-04-26 16:50 23.95512 55.24328 12098 ft 304 kts 297°
2026-04-26 16:50 23.96493 55.22295 11757 ft 302 kts 297°
2026-04-26 16:50 23.97461 55.20275 11381 ft 296 kts 297°
2026-04-26 16:51 23.98405 55.18291 10773 ft 293 kts 296°
2026-04-26 16:51 23.99340 55.16318 10220 ft 290 kts 296°
2026-04-26 16:51 24.00257 55.14377 9836 ft 283 kts 296°
2026-04-26 16:51 24.01136 55.12511 9694 ft 271 kts 296°
2026-04-26 16:52 24.01990 55.10696 9452 ft 266 kts 296°
2026-04-26 16:52 24.02263 55.10114 9394 ft 263 kts 296°
2026-04-26 16:52 24.03646 55.07173 9067 ft 261 kts 297°
2026-04-26 16:52 24.04484 55.05389 8741 ft 260 kts 297°
2026-04-26 16:53 24.05307 55.03665 8415 ft 258 kts 300°
2026-04-26 16:53 24.06364 55.02080 8064 ft 257 kts 308°
2026-04-26 16:53 24.07392 55.00652 7736 ft 256 kts 308°
2026-04-26 16:53 24.08486 54.99123 7452 ft 253 kts 308°
2026-04-26 16:54 24.09677 54.97791 7359 ft 240 kts 329°
2026-04-26 16:54 24.11242 54.97368 7229 ft 235 kts
2026-04-26 16:54 24.12756 54.98026 6929 ft 241 kts 33°
2026-04-26 16:54 24.14088 54.99148 6621 ft 242 kts 34°
2026-04-26 16:55 24.15395 55.00198 6329 ft 239 kts 24°
2026-04-26 16:55 24.16967 55.00564 6022 ft 230 kts 351°
2026-04-26 16:55 24.18414 54.99933 5709 ft 226 kts 320°
2026-04-26 16:55 24.19343 54.98564 5401 ft 225 kts 300°
2026-04-26 16:56 24.21306 54.95997 5001 ft 213 kts 321°
2026-04-26 16:56 24.22381 54.94961 4994 ft 199 kts 315°
2026-04-26 16:56 24.23277 54.93870 4994 ft 188 kts 311°
2026-04-26 16:57 24.23942 54.92653 5006 ft 186 kts 298°
2026-04-26 16:57 24.24616 54.91450 5016 ft 185 kts 307°
2026-04-26 16:57 24.26167 54.89202 4817 ft 185 kts 309°
2026-04-26 16:58 24.26689 54.88467 4681 ft 184 kts 309°
2026-04-26 16:58 24.27219 54.87722 4530 ft 183 kts 309°
2026-04-26 16:58 24.29034 54.85178 3995 ft 182 kts 310°
2026-04-26 16:59 24.29809 54.84090 3764 ft 181 kts 310°
2026-04-26 16:59 24.31332 54.81953 3327 ft 180 kts 310°
2026-04-26 17:00 24.32869 54.79796 2875 ft 178 kts 310°
2026-04-26 17:00 24.34378 54.77676 2425 ft 172 kts 310°
2026-04-26 17:00 24.35092 54.76673 2212 ft 166 kts 310°
2026-04-26 17:01 24.35791 54.75691 2010 ft 161 kts 310°
2026-04-26 17:01 24.36464 54.74744 1825 ft 152 kts 310°
2026-04-26 17:01 24.37080 54.73878 1629 ft 141 kts 311°
2026-04-26 17:01 24.37623 54.73115 1468 ft 137 kts 311°
2026-04-26 17:02 24.38185 54.72326 1296 ft 136 kts 311°
2026-04-26 17:02 24.38650 54.71672 1167 ft 135 kts 311°
2026-04-26 17:02 24.39225 54.70863 990 ft 134 kts 310°
2026-04-26 17:02 24.39794 54.70062 841 ft 132 kts 310°
2026-04-26 17:03 24.40364 54.69261 697 ft 135 kts 308°
2026-04-26 17:03 24.40934 54.68459 530 ft 132 kts 307°
2026-04-26 17:03 24.41497 54.67666 322 ft 131 kts 307°
2026-04-26 17:03 24.42061 54.66869 178 ft 133 kts 307°
2026-04-26 17:04 24.42612 54.66081 85 ft 122 kts 308°
2026-04-26 17:04 24.43055 54.65461 76 ft 80 kts 309°
2026-04-26 17:04 24.43297 54.65133 72 ft 37 kts 308°
2026-04-26 17:04 24.43435 54.64966 69 ft 26 kts 323°
2026-04-26 17:05 24.43561 54.64890 70 ft 20 kts 339°
2026-04-26 17:05 24.43669 54.64844 70 ft 13 kts 339°
2026-04-26 17:05 24.43722 54.64819 72 ft 8 kts 335°
2026-04-26 17:05 24.43766 54.64777 68 ft 9 kts 311°
2026-04-26 17:06 24.43816 54.64754 73 ft 10 kts
2026-04-26 17:06 24.43868 54.64787 66 ft 9 kts 38°
2026-04-26 17:06 24.43915 54.64829 71 ft 8 kts 41°
2026-04-26 17:06 24.43954 54.64866 71 ft 7 kts 41°
2026-04-26 17:07 24.43986 54.64896 88 ft 6 kts 41°
2026-04-26 17:07 24.44024 54.64926 76 ft 11 kts 34°
2026-04-26 17:07 24.44108 54.64994 73 ft 18 kts 38°
2026-04-26 17:07 24.44212 54.65082 72 ft 20 kts 38°
2026-04-26 17:08 24.44327 54.65179 69 ft 22 kts 37°
2026-04-26 17:08 24.44436 54.65268 75 ft 24 kts 36°
2026-04-26 17:08 24.44569 54.65386 74 ft 25 kts 38°
2026-04-26 17:08 24.44715 54.65505 69 ft 26 kts 37°
2026-04-26 17:09 24.44817 54.65520 71 ft 17 kts 313°
2026-04-26 17:09 24.44863 54.65449 73 ft 18 kts 307°
2026-04-26 17:09 24.44974 54.65297 77 ft 21 kts 308°
2026-04-26 17:09 24.45065 54.65166 71 ft 22 kts 307°
2026-04-26 17:10 24.45146 54.65051 68 ft 15 kts 308°
2026-04-26 17:10 24.45209 54.64951 70 ft 17 kts 291°
2026-04-26 17:10 24.45237 54.64848 71 ft 15 kts 286°
2026-04-26 17:10 24.45264 54.64737 69 ft 11 kts 284°
2026-04-26 17:11 24.45248 54.64708 67 ft 4 kts 191°
2026-04-26 17:11 24.45215 54.64693 75 ft 9 kts 194°
2026-04-26 17:11 24.45176 54.64683 71 ft 1 kts 193°
2026-04-26 17:11 24.45172 54.64682 75 ft 0 kts 192°